Weather History for KHEI - November, 2012

Change the Weather History Date:

Saturday, November 10, 2012

  Actual Average Record
Temperature  
Mean Temperature 18 °F -  
Max Temperature 28 °F 44 °F 66 °F (2005)
Min Temperature 8 °F 20 °F -2 °F (2000)
Degree Days  
Heating Degree Days 47 33  
Month to date heating degree days 287 310  
Since 1 July heating degree days 1275 1365  
Moisture  
Dew Point 16 °F    
Average Humidity 86    
Maximum Humidity 92    
Minimum Humidity 76    
Precipitation  
Precipitation 0.05 in 0.03 in 0.05 in (2012)
Month to date precipitation 0.06 0.36  
Year to date precipitation 14.58 15.55  
Sea Level Pressure  
Sea Level Pressure 29.79 in    
Wind  
Wind Speed 19 mph (NNW)    
Max Wind Speed 31 mph    
Max Gust Speed 38 mph    
Visibility 7 miles    
Events Fog , Snow    
T = Trace of Precipitation, MM = Missing Value Source: NWS Daily Summary

Daily Weather History Graph

Daily Weather History Graph

Search for Another Location

Airport or City:

Trip Planner

Search our weather history database for the weather conditions in past years. The results will help you decide how hot, cold, wet, or windy it might be!

Date:

Astronomy

Nov. 10, 2012 Rise Set
Actual Time 6:44 AM MST 4:23 PM MST
Civil Twilight 6:12 AM MST 4:55 PM MST
Nautical Twilight 5:36 AM MST 5:31 PM MST
Astronomical Twilight 5:01 AM MST 6:06 PM MST
Moon 2:41 AM MST (11/10) 2:20 PM MST (11/10)
Length of Visible Light 10h 43m
Length of Day
9h 39m
Waning Crescent, 14% of the Moon is Illuminated
Nov 10
Waning Crescent
Nov 13
New
Nov 20
First Quarter
Nov 28
Full
Dec 6
Last Quarter

Hourly Weather History & Observations

Time (MST) Temp. Windchill Dew Point Humidity Pressure Visibility Wind Dir Wind Speed Gust Speed Precip Events Conditions
12:07 AM 26.6 °F 13.8 °F 24.8 °F 93% 29.69 in 3.0 mi ENE 17.3 mph 25.3 mph N/A   Overcast
12:53 AM 27.0 °F 16.7 °F 25.0 °F 92% 29.80 in 5.0 mi NE 11.5 mph - N/A   Overcast
1:53 AM 26.1 °F 16.8 °F 25.0 °F 96% 29.79 in 6.0 mi NNE 9.2 mph - N/A   Overcast
2:53 AM 26.1 °F 15.6 °F 24.1 °F 92% 29.75 in 4.0 mi NNE 11.5 mph - 0.00 in   Overcast
3:43 AM 26.6 °F 16.8 °F 24.8 °F 93% 29.68 in 2.0 mi North 10.4 mph - 0.01 in Snow Light Snow
3:53 AM 26.1 °F 17.6 °F 24.1 °F 92% 29.76 in 2.0 mi North 8.1 mph - 0.02 in Snow Light Snow
3:56 AM 26.6 °F 18.2 °F 24.8 °F 93% 29.67 in 1.8 mi North 8.1 mph - 0.00 in Snow Light Snow
4:08 AM 26.6 °F 16.2 °F 24.8 °F 93% 29.67 in 1.8 mi NNE 11.5 mph - 0.00 in Snow Light Snow
4:14 AM 26.6 °F 16.8 °F 24.8 °F 93% 29.67 in 3.0 mi NNE 10.4 mph - 0.00 in Snow Light Snow
4:32 AM 26.6 °F 16.8 °F 24.8 °F 93% 29.67 in 2.0 mi North 10.4 mph - 0.01 in Snow Light Snow
4:45 AM 26.6 °F 16.2 °F 23.0 °F 86% 29.68 in 4.0 mi North 11.5 mph - 0.01 in Snow Light Snow
4:53 AM 26.1 °F 16.8 °F 23.0 °F 88% 29.77 in 7.0 mi North 9.2 mph - 0.01 in Snow Light Snow
5:33 AM 26.6 °F 17.5 °F 23.0 °F 86% 29.70 in 10.0 mi NNW 9.2 mph - 0.00 in   Overcast
5:53 AM 25.0 °F 13.6 °F 21.9 °F 88% 29.76 in 10.0 mi North 12.7 mph 19.6 mph 0.00 in   Overcast
6:44 AM 24.8 °F 13.4 °F 21.2 °F 86% 29.70 in 10.0 mi North 12.7 mph - N/A   Overcast
6:53 AM 24.1 °F 12.0 °F 21.0 °F 88% 29.81 in 10.0 mi NNW 13.8 mph - N/A   Overcast
7:34 AM 21.2 °F 6.8 °F 19.4 °F 93% 29.69 in 10.0 mi North 17.3 mph 25.3 mph N/A   Overcast
7:53 AM 21.9 °F 9.2 °F 19.0 °F 89% 29.79 in 10.0 mi North 13.8 mph 23.0 mph N/A   Overcast
8:30 AM 21.2 °F 7.8 °F 17.6 °F 86% 29.70 in 10.0 mi North 15.0 mph - N/A   Overcast
8:53 AM 21.0 °F 8.1 °F 18.0 °F 88% 29.77 in 10.0 mi North 13.8 mph - N/A   Overcast
9:53 AM 19.9 °F 5.7 °F 17.1 °F 89% 29.83 in 2.5 mi NNW 16.1 mph 21.9 mph 0.00 in Snow Light Snow
10:20 AM 19.4 °F 5.5 °F 17.6 °F 93% 29.72 in 1.2 mi NW 15.0 mph - 0.00 in Snow Light Snow
10:41 AM 19.4 °F 4.5 °F 15.8 °F 86% 29.73 in 0.8 mi NW 17.3 mph 24.2 mph 0.01 in Snow Light Snow
10:53 AM 19.0 °F 3.2 °F 16.0 °F 88% 29.84 in 0.5 mi NW 19.6 mph - 0.01 in Fog , Snow Snow
11:06 AM 19.4 °F 3.6 °F 15.8 °F 86% 29.73 in 0.2 mi NW 19.6 mph 27.6 mph 0.00 in Fog , Snow Heavy Snow
11:19 AM 19.4 °F 5.0 °F 15.8 °F 86% 29.72 in 0.5 mi NW 16.1 mph 23.0 mph 0.01 in Fog , Snow Snow
11:30 AM 19.4 °F 5.0 °F 17.6 °F 93% 29.72 in 2.0 mi NW 16.1 mph - 0.01 in Snow Light Snow
11:39 AM 19.4 °F 3.6 °F 15.8 °F 86% 29.72 in 7.0 mi NW 19.6 mph 24.2 mph 0.01 in Snow Light Snow
11:53 AM 19.9 °F 3.5 °F 16.0 °F 85% 29.81 in 10.0 mi NW 21.9 mph 27.6 mph 0.01 in   Overcast
12:53 PM 19.0 °F 1.3 °F 14.0 °F 81% 29.80 in 10.0 mi NNW 25.3 mph 32.2 mph N/A   Overcast
1:53 PM 18.0 °F 0.6 °F 12.9 °F 81% 29.83 in 10.0 mi NW 23.0 mph 31.1 mph 0.00 in   Overcast
2:43 PM 17.6 °F 0.1 °F 12.2 °F 79% 29.72 in 10.0 mi NW 23.0 mph 31.1 mph N/A   Overcast
2:53 PM 16.0 °F -2.8 °F 10.9 °F 81% 29.85 in 10.0 mi NW 25.3 mph 32.2 mph N/A   Overcast
3:01 PM 15.8 °F -2.7 °F 10.4 °F 79% 29.75 in 10.0 mi NW 24.2 mph 33.4 mph N/A   Overcast
3:09 PM 15.8 °F -3.1 °F 10.4 °F 79% 29.75 in 10.0 mi NW 25.3 mph 35.7 mph N/A   Overcast
3:53 PM 15.1 °F -2.0 °F 10.0 °F 80% 29.88 in 4.0 mi NW 19.6 mph 25.3 mph 0.00 in Snow Light Snow
4:53 PM 15.1 °F -2.9 °F 9.0 °F 77% 29.92 in 10.0 mi NW 21.9 mph 33.4 mph 0.00 in   Overcast
5:53 PM 14.0 °F -3.4 °F 9.0 °F 80% 29.95 in 10.0 mi NW 19.6 mph 26.5 mph N/A   Partly Cloudy
6:26 PM 14.0 °F -4.7 °F 8.6 °F 79% 29.83 in 10.0 mi NW 23.0 mph 33.4 mph N/A   Mostly Cloudy
6:53 PM 14.0 °F -4.7 °F 9.0 °F 80% 29.97 in 10.0 mi WNW 23.0 mph 27.6 mph N/A   Mostly Cloudy
7:53 PM 12.9 °F -4.9 °F 8.1 °F 81% 29.98 in 10.0 mi WNW 19.6 mph 27.6 mph N/A   Mostly Cloudy
9:45 PM 10.4 °F -9.1 °F 5.0 °F 79% 29.82 in 10.0 mi WNW 21.9 mph 28.8 mph N/A   Mostly Cloudy
9:53 PM 10.0 °F -10.0 °F 5.0 °F 80% 29.96 in 10.0 mi WNW 23.0 mph 28.8 mph N/A   Overcast
10:15 PM 10.4 °F -8.6 °F 5.0 °F 79% 29.82 in 10.0 mi WNW 20.7 mph 28.8 mph N/A   Overcast
10:34 PM 8.6 °F -12.7 °F 3.2 °F 79% 29.83 in 10.0 mi WNW 25.3 mph 38.0 mph N/A   Mostly Cloudy
10:48 PM 8.6 °F -12.7 °F 3.2 °F 79% 29.84 in 10.0 mi WNW 25.3 mph 31.1 mph N/A   Scattered Clouds
10:53 PM 8.1 °F -12.6 °F 3.0 °F 80% 29.99 in 10.0 mi WNW 23.0 mph 31.1 mph N/A   Partly Cloudy
11:53 PM 8.1 °F -12.6 °F 1.9 °F 76% 29.99 in 10.0 mi WNW 23.0 mph - N/A   Clear